Temperature
17 19 20 20 20 19 19 18 19 20 19 16 17 18 20 20 19 18 18 17 17 16 15 14 15 15 15 14 13 13 12 11 10 9 8 8 7 7 6 6 6 5 5 4
19 20 20 18 16 16 17 18 19 20 17 15 17 18 20 20 19 18 17 17 16 16 15 13 14 15 15 15 14 14 13 12 11 10 9 9 8 7 7 6 6 5 5 4
19 19 16 16 17 17 18 18 19 18 17 17 15 19 22 22 18 17 16 15 15 14 14 13 13 15 16 15 15 15 14 13 12 11 10 8 8 7 7 7 7 6 5 5
18 17 16 16 17 17 18 17 16 16 16 18 16 17 21 21 20 21 20 18 16 15 14 14 14 15 16 16 16 15 15 14 13 12 11 10 9 9 9 8 8 7 6 5
19 17 16 17 17 16 17 15 15 15 15 16 16 16 20 21 22 22 21 19 17 15 15 15 15 16 17 16 16 16 15 14 14 13 12 11 10 10 9 7 7 7 7 6
17 15 16 16 15 15 15 15 15 14 16 17 17 17 20 23 21 20 20 18 17 15 15 16 17 17 17 17 17 16 16 15 14 14 13 12 12 11 9 8 7 7 7 6
18 17 15 15 16 15 16 17 19 19 19 19 15 15 19 21 20 18 17 16 16 15 16 16 17 17 17 17 17 17 16 16 15 15 14 14 13 12 10 9 7 7 7 7
17 19 16 15 16 16 16 16 18 17 18 18 16 16 20 21 19 17 16 16 16 16 16 16 16 17 17 17 17 17 17 16 16 15 15 15 14 12 11 10 8 7 7 7
18 18 15 14 14 15 16 16 15 16 16 15 17 18 19 20 20 20 19 17 16 16 15 15 15 16 16 17 17 16 16 16 16 16 15 15 14 13 13 11 9 7 7 6
17 17 16 14 14 13 14 15 15 16 16 17 18 18 19 21 21 20 19 17 16 15 14 14 14 15 15 15 16 16 16 16 15 15 14 14 13 13 12 10 9 8 7 5
16 16 16 15 15 16 14 14 15 16 16 16 17 18 20 20 19 18 17 16 15 14 13 13 14 14 14 15 15 15 15 15 15 14 14 13 13 12 11 11 10 8 6 5
14 16 16 17 14 13 15 15 15 16 17 15 16 17 20 19 18 16 16 15 14 13 13 13 13 13 13 14 14 14 14 14 14 14 13 13 13 12 11 11 10 8 6 5
13 15 16 17 15 13 13 13 14 15 15 15 15 17 20 19 19 17 16 15 14 13 12 12 12 13 13 13 13 13 13 13 13 13 13 13 12 12 11 10 9 7 5 4
13 15 16 17 18 17 15 14 13 13 14 15 16 17 19 19 18 16 15 14 13 12 12 12 12 12 12 12 12 12 12 12 12 12 12 12 12 11 10 9 8 6 4 3
13 14 15 15 16 15 14 14 15 14 14 14 16 17 17 17 16 14 13 13 12 12 11 11 11 11 11 11 11 11 10 11 10 11 11 11 10 10 9 8 7 5 4 2
12 13 13 13 14 13 12 13 14 14 14 14 14 15 16 14 13 13 13 13 12 11 11 11 10 10 10 9 9 9 9 9 9 10 10 10 9 9 8 7 6 4 3 1
11 12 12 14 12 11 13 15 14 14 14 14 15 16 14 13 13 12 12 12 11 11 10 10 9 9 8 8 8 8 8 8 9 9 9 9 9 8 7 6 5 4 2 0
12 11 12 12 11 10 16 15 14 14 14 14 13 13 13 12 11 11 11 11 10 10 9 9 8 8 7 7 7 7 8 8 8 8 8 8 7 7 6 5 4 3 1 -1
10 11 11 10 12 13 15 14 13 12 14 14 13 12 12 11 11 12 11 10 9 8 8 7 7 7 6 6 6 6 7 7 7 7 7 6 6 5 5 4 3 1 -0 -2
7 9 10 9 9 11 16 13 11 12 13 12 11 11 11 10 10 11 9 8 8 7 7 6 6 6 6 6 6 6 6 6 5 5 5 5 5 4 4 3 2 0 -1 -2
8 8 8 9 9 12 14 10 10 12 14 11 11 10 10 10 9 9 8 7 6 6 6 6 5 5 5 5 5 5 5 4 4 4 4 4 4 3 3 2 1 -1 -2 -3
11 10 9 9 9 10 12 10 12 13 11 10 10 9 8 8 7 7 6 6 6 5 5 5 5 5 5 5 4 3 3 3 3 3 3 3 3 2 2 1 -0 -2 -3 -4
10 12 12 11 12 13 10 11 11 10 9 9 8 7 7 6 6 6 5 5 5 5 5 4 4 4 4 3 3 2 2 2 2 2 2 2 2 2 1 0 -1 -2 -4 -5
10 9 9 10 12 12 11 10 9 9 8 7 7 6 6 5 5 4 4 4 4 4 4 3 3 3 3 2 2 2 1 1 1 1 1 1 1 1 0 -1 -2 -3 -4 -5
10 9 9 10 11 11 10 9 8 7 7 6 6 5 5 4 4 4 4 4 3 3 3 3 2 2 1 1 1 1 1 0 0 0 0 0 -0 -0 -1 -2 -2 -3 -4 -4
9 9 9 10 11 10 9 8 7 6 5 5 4 4 4 4 3 3 3 3 3 3 2 2 1 1 1 1 1 1 1 0 -0 -0 -0 -0 -1 -1 -2 -2 -3 -3 -4 -5
Wind_Speed
1 5 9 9 9 10 11 13 18 19 10 8 19 28 32 27 20 22 22 21 21 22 20 17 19 21 21 21 23 23 24 23 20 17 16 16 16 14 15 18 21 22 21 21
5 10 9 4 3 6 9 13 17 14 3 6 18 28 28 20 15 15 16 17 17 17 16 15 16 19 22 23 24 24 25 24 24 19 17 14 14 13 15 17 20 23 23 23
9 5 2 2 5 7 11 12 14 14 13 8 11 15 10 7 7 8 9 10 11 12 13 14 16 19 20 23 25 22 25 25 25 22 16 13 12 11 14 17 16 22 25 25
8 4 3 6 7 7 10 6 9 10 11 8 6 9 13 9 10 9 10 8 7 6 8 10 13 17 20 22 20 22 23 24 24 23 21 22 19 20 20 17 17 20 25 26
6 2 3 6 6 4 6 3 6 8 8 9 5 6 11 8 11 15 15 14 11 8 6 7 11 14 16 17 18 20 22 23 24 25 25 24 24 22 18 17 19 20 21 25
7 2 3 3 1 2 4 5 4 3 3 5 1 4 8 6 11 16 17 16 14 12 9 6 6 9 12 14 16 18 21 23 23 25 26 27 28 26 23 22 20 18 16 18
4 2 2 2 3 2 3 6 5 4 3 3 1 6 10 9 10 11 14 15 15 13 11 9 7 6 9 13 16 17 20 22 23 25 27 28 29 28 27 25 22 20 17 18
5 2 1 2 3 3 2 4 4 6 6 7 4 7 9 10 10 8 8 10 13 15 14 12 9 7 8 11 14 17 20 22 22 24 26 26 27 22 21 25 22 21 19 19
4 4 2 1 1 2 2 2 2 4 6 7 7 7 12 5 4 8 12 14 17 17 16 14 12 10 8 8 11 14 18 20 21 23 24 24 25 25 25 24 23 21 20 18
3 6 2 0 2 1 2 2 3 4 5 7 8 8 7 11 14 15 16 17 19 18 17 15 13 12 10 8 8 11 15 18 18 20 21 19 23 24 24 22 24 23 22 21
3 5 4 3 5 4 4 4 5 4 5 6 9 9 7 12 14 13 15 18 18 17 16 14 13 12 11 9 8 9 11 14 15 17 18 20 21 22 23 23 24 24 22 22
3 3 6 6 1 1 4 6 6 6 8 7 9 12 10 10 10 11 16 17 15 14 13 13 13 13 13 12 10 9 10 12 14 14 16 18 19 20 22 23 24 23 23 22
5 4 6 5 3 3 5 6 8 7 7 11 11 14 6 10 16 17 17 15 13 13 13 14 15 16 16 15 14 12 11 12 12 12 15 17 18 20 22 22 21 21 22 22
5 6 10 13 14 9 9 10 10 11 11 15 20 26 28 25 21 19 17 15 13 12 13 16 18 19 19 18 17 16 15 13 12 12 14 16 18 19 20 19 19 20 21 22
5 8 12 18 19 15 18 23 21 21 21 19 25 27 27 21 16 15 15 15 14 14 16 19 20 21 21 21 20 18 17 15 12 13 14 16 16 17 17 18 19 19 20 21
5 7 7 14 16 15 19 25 27 24 23 24 28 26 17 10 10 13 16 15 14 16 19 22 22 22 22 21 20 19 18 16 14 14 15 16 15 15 16 17 17 18 19 19
6 6 7 12 7 8 14 17 16 12 13 13 15 11 8 12 13 16 18 15 15 19 22 22 22 21 20 20 19 19 18 17 15 15 15 15 14 15 15 15 16 18 19 19
8 6 6 8 7 11 9 2 7 12 15 14 14 12 13 14 16 17 15 14 18 22 22 22 20 20 19 19 18 17 17 16 15 15 15 14 14 15 15 15 16 17 16 17
11 9 7 5 9 14 12 9 5 6 10 5 5 9 14 16 18 16 12 15 20 21 20 19 19 19 19 18 17 16 17 17 16 15 16 15 14 15 15 15 16 15 15 16
4 8 7 6 7 9 10 2 1 3 7 2 5 14 18 19 20 19 19 21 21 20 18 18 18 19 19 18 17 18 18 18 17 17 17 16 15 15 15 15 15 14 14 15
5 6 9 10 10 12 7 1 2 5 6 6 13 17 18 18 18 21 22 20 19 18 18 18 18 18 18 19 18 18 19 19 18 18 18 17 16 15 15 14 13 13 12 13
7 6 8 7 9 11 3 4 5 9 11 14 17 17 18 20 21 20 19 19 18 18 18 19 18 19 18 18 18 19 20 19 19 18 18 17 16 13 11 12 12 11 12 13
8 8 6 9 11 8 3 8 10 11 16 17 16 17 18 18 19 18 17 18 18 19 19 18 19 20 19 18 18 20 20 19 19 18 18 17 15 13 11 11 11 10 11 11
7 7 9 13 17 18 17 17 16 15 16 16 16 16 15 16 16 17 16 17 18 18 19 19 19 20 20 20 19 19 20 19 18 18 18 16 14 13 11 9 9 9 10 10
11 7 12 20 22 21 16 13 14 15 15 15 14 13 12 13 14 16 16 17 18 18 18 18 18 19 21 21 20 19 18 18 17 17 16 15 12 12 11 9 9 10 11 11
16 19 18 20 21 20 23 17 14 14 13 12 12 12 12 12 14 17 17 17 18 19 19 18 19 20 21 21 21 19 18 16 16 15 14 12 11 10 9 9 9 12 13 15
Wind_Direction
279 251 260 278 272 279 286 283 287 293 300 271 277 283 287 292 283 269 265 261 255 247 242 227 214 210 208 207 207 206 205 206 203 204 207 209 214 215 216 217 216 213 211 209
259 260 279 287 253 249 262 280 290 300 309 275 293 290 290 293 287 279 276 273 266 260 245 224 211 207 207 207 207 207 208 206 205 207 207 211 217 221 220 219 219 216 214 212
259 291 90 219 252 263 270 273 293 303 313 272 306 296 296 322 318 306 298 286 279 266 252 228 213 211 209 210 209 208 208 208 207 207 207 210 215 222 219 220 219 217 215 213
266 278 240 257 267 267 287 295 281 291 306 306 334 305 305 333 338 3 6 360 337 302 264 240 220 215 214 215 212 212 212 211 209 206 209 209 212 219 222 220 220 218 215 215
274 261 254 271 284 249 285 320 282 285 287 289 270 273 295 330 357 2 3 5 2 350 313 264 237 227 223 218 214 214 215 215 212 210 213 216 223 228 229 224 223 220 216 215
267 266 257 278 305 246 281 277 250 229 250 267 260 274 296 348 351 343 347 355 360 357 347 316 268 241 231 220 216 215 216 219 215 214 216 219 225 227 227 225 223 220 218 215
289 219 197 228 267 203 270 303 299 287 273 291 79 266 265 305 330 327 329 342 354 358 355 345 321 267 239 224 219 218 219 223 219 218 220 223 227 228 229 228 226 222 220 217
307 302 167 213 271 312 313 296 316 310 304 307 286 260 274 309 313 318 331 347 359 0 355 345 332 299 262 238 224 220 222 226 223 222 224 226 228 230 233 231 228 226 224 222
288 298 105 69 274 265 256 236 326 283 282 279 274 276 291 280 314 353 2 1 357 351 346 341 336 324 299 267 240 228 227 230 227 226 227 229 229 229 232 233 232 231 229 225
261 282 276 138 174 122 296 216 208 255 291 292 285 278 272 303 326 340 349 350 347 344 342 341 340 336 324 302 274 247 237 238 237 233 232 233 232 232 234 234 233 231 230 225
228 264 273 237 226 236 182 197 224 247 261 280 293 280 264 288 313 329 336 341 341 341 342 344 343 340 333 321 301 275 256 250 247 241 238 237 237 236 235 234 235 233 231 226
204 247 272 267 130 273 239 237 217 256 269 249 278 281 277 284 310 326 330 335 338 341 343 344 345 344 342 335 321 298 275 261 255 249 244 243 242 239 237 236 235 233 231 227
172 224 287 275 214 193 228 227 222 242 270 261 265 274 284 291 311 323 332 336 338 341 343 346 347 345 340 334 325 312 294 279 270 259 251 249 245 241 240 240 238 234 231 229
196 233 244 269 285 291 262 251 228 227 255 267 260 274 289 302 319 330 335 335 333 336 340 342 341 338 334 329 325 318 309 298 284 270 259 255 251 247 245 244 240 235 231 229
202 250 250 261 273 277 271 271 263 249 253 264 273 279 290 311 324 327 329 328 326 332 336 337 334 331 328 326 324 322 315 309 297 280 269 263 261 256 251 246 241 236 232 230
220 252 265 270 272 272 270 267 266 263 257 256 266 276 291 316 327 328 328 327 322 327 329 329 327 325 324 322 321 318 316 313 305 289 279 275 269 261 254 249 244 239 234 230
212 234 266 280 294 289 270 259 253 239 234 240 262 286 336 329 328 326 321 320 320 322 324 323 322 321 319 319 318 316 313 310 304 293 286 281 274 266 258 251 244 239 235 230
227 227 258 281 285 252 262 270 254 256 259 255 264 289 311 316 314 309 307 316 321 322 320 320 319 318 316 315 314 313 310 307 303 298 294 289 282 273 266 256 248 242 237 232
224 220 238 249 265 274 280 278 249 250 277 273 274 309 320 322 313 312 330 327 319 317 316 316 316 315 313 312 314 313 309 308 306 304 302 298 290 280 271 261 254 246 238 234
188 217 231 232 250 271 291 98 126 267 274 120 332 327 328 328 319 318 330 321 317 316 315 316 315 314 312 315 318 312 309 309 308 309 307 302 294 285 275 266 259 249 240 236
167 195 218 235 246 268 283 104 202 261 317 347 325 322 319 314 307 310 317 316 315 314 314 315 314 313 313 316 316 310 309 310 312 310 306 303 297 289 280 273 262 251 241 235
208 210 215 221 232 256 208 169 240 300 324 317 315 314 312 309 309 312 314 315 315 315 315 317 315 312 313 314 312 309 309 312 313 310 306 304 301 295 283 273 264 250 238 233
226 229 244 223 245 283 228 255 292 310 307 310 311 311 310 308 309 313 313 313 314 313 314 315 314 311 311 312 312 308 310 313 312 309 307 306 303 296 285 273 263 250 236 231
244 242 253 264 267 277 283 288 292 298 303 308 308 308 308 307 310 312 313 312 313 312 313 314 313 310 311 313 311 307 309 312 311 308 308 307 303 297 287 272 257 246 237 230
253 253 258 268 279 289 286 290 299 306 306 307 309 308 307 307 307 311 311 311 311 311 310 311 308 307 308 311 310 310 310 312 310 308 306 305 301 296 290 276 261 250 241 234
241 248 260 273 287 295 299 309 310 306 306 309 309 308 310 308 306 308 308 308 308 308 309 307 306 307 309 311 310 310 311 311 308 306 305 304 302 297 288 283 274 251 246 245
Height
1552 1550 1545 1543 1544 1544 1544 1543 1537 1530 1529 1534 1523 1508 1493 1490 1492 1489 1487 1487 1486 1486 1489 1491 1492 1495 1498 1500 1503 1506 1508 1511 1513 1514 1515 1516 1517 1519 1521 1522 1523 1524 1524 1524
1549 1545 1543 1545 1547 1547 1545 1542 1533 1526 1531 1532 1518 1503 1488 1485 1484 1483 1481 1479 1479 1479 1482 1483 1484 1487 1489 1492 1495 1498 1500 1503 1505 1506 1508 1510 1512 1512 1513 1514 1514 1515 1515 1516
1546 1543 1546 1546 1545 1545 1541 1539 1532 1531 1528 1526 1525 1497 1480 1479 1482 1480 1478 1476 1474 1474 1475 1477 1477 1480 1483 1485 1488 1491 1493 1496 1497 1500 1502 1502 1503 1502 1503 1502 1503 1505 1506 1507
1544 1544 1546 1544 1542 1542 1537 1536 1538 1536 1533 1523 1528 1514 1483 1480 1478 1475 1475 1474 1473 1472 1471 1472 1473 1474 1477 1480 1483 1485 1488 1489 1491 1492 1492 1491 1491 1490 1490 1492 1493 1495 1496 1496
1540 1543 1544 1542 1540 1541 1536 1539 1538 1536 1533 1529 1523 1522 1490 1479 1476 1474 1474 1474 1473 1472 1470 1470 1470 1472 1474 1476 1478 1479 1481 1482 1483 1483 1482 1482 1481 1481 1483 1483 1483 1483 1484 1485
1542 1544 1543 1542 1542 1542 1540 1538 1537 1537 1531 1525 1519 1520 1496 1477 1481 1479 1476 1476 1474 1472 1471 1470 1469 1469 1470 1471 1472 1473 1473 1474 1474 1474 1473 1472 1472 1472 1472 1472 1471 1471 1471 1472
1539 1540 1542 1543 1541 1540 1540 1534 1526 1522 1520 1515 1524 1521 1498 1480 1483 1484 1482 1478 1476 1474 1472 1470 1469 1468 1468 1467 1467 1467 1466 1466 1466 1465 1464 1463 1462 1462 1461 1461 1460 1460 1459 1458
1542 1537 1539 1541 1540 1539 1539 1537 1536 1535 1526 1517 1519 1516 1488 1481 1484 1484 1483 1480 1477 1475 1472 1470 1468 1466 1465 1463 1462 1461 1460 1459 1459 1457 1455 1454 1453 1452 1450 1450 1449 1447 1446 1447
1542 1539 1541 1542 1542 1541 1538 1537 1539 1536 1531 1533 1515 1505 1489 1480 1480 1480 1479 1478 1477 1474 1472 1468 1465 1463 1461 1459 1457 1456 1454 1453 1451 1449 1448 1445 1444 1441 1440 1439 1438 1436 1435 1436
1541 1541 1537 1541 1542 1543 1541 1538 1539 1536 1533 1526 1512 1506 1493 1478 1476 1477 1478 1478 1476 1474 1470 1466 1463 1460 1457 1455 1453 1451 1449 1447 1445 1442 1439 1437 1434 1432 1430 1428 1426 1425 1425 1425
1542 1542 1537 1538 1536 1533 1540 1540 1536 1532 1532 1527 1517 1502 1482 1480 1478 1480 1480 1479 1477 1473 1469 1465 1461 1458 1455 1452 1450 1447 1444 1441 1438 1435 1432 1428 1425 1422 1420 1417 1414 1414 1413 1413
1543 1541 1536 1532 1535 1537 1534 1531 1531 1531 1523 1525 1517 1500 1477 1478 1480 1481 1480 1478 1475 1472 1468 1464 1461 1457 1453 1450 1447 1443 1440 1436 1433 1429 1425 1421 1417 1413 1409 1406 1404 1402 1401 1401
1543 1541 1537 1528 1534 1537 1535 1531 1530 1527 1525 1519 1516 1493 1473 1476 1477 1478 1478 1476 1473 1470 1466 1463 1459 1455 1451 1447 1443 1439 1435 1431 1426 1422 1417 1412 1408 1403 1399 1396 1393 1391 1390 1389
1541 1537 1534 1530 1521 1521 1525 1526 1528 1527 1520 1508 1499 1484 1473 1472 1475 1476 1476 1474 1471 1468 1465 1461 1457 1453 1449 1444 1439 1434 1429 1424 1419 1413 1408 1403 1399 1394 1390 1386 1383 1380 1379 1378
1540 1534 1528 1523 1519 1522 1521 1517 1514 1515 1509 1504 1487 1480 1473 1474 1477 1477 1475 1472 1468 1465 1462 1458 1454 1449 1444 1439 1434 1428 1423 1417 1411 1405 1399 1394 1390 1385 1380 1376 1372 1370 1368 1366
1537 1533 1529 1523 1519 1520 1518 1508 1502 1500 1497 1493 1486 1481 1476 1479 1478 1476 1473 1469 1466 1463 1459 1454 1450 1444 1439 1433 1427 1421 1415 1409 1403 1397 1391 1386 1380 1375 1370 1366 1363 1360 1357 1356
1532 1531 1528 1517 1518 1520 1508 1491 1489 1488 1485 1484 1478 1473 1476 1476 1475 1473 1469 1465 1463 1459 1455 1450 1445 1439 1433 1427 1421 1414 1408 1402 1396 1389 1383 1377 1371 1366 1361 1356 1352 1349 1347 1346
1527 1528 1526 1521 1519 1518 1486 1482 1483 1481 1478 1477 1476 1476 1477 1475 1473 1470 1465 1462 1459 1455 1449 1444 1438 1433 1427 1421 1414 1408 1401 1395 1388 1381 1375 1369 1363 1357 1352 1346 1342 1339 1337 1336
1524 1525 1523 1523 1511 1494 1483 1480 1481 1481 1474 1474 1474 1475 1474 1471 1466 1462 1461 1459 1455 1450 1444 1439 1433 1427 1420 1414 1408 1400 1394 1387 1381 1374 1368 1361 1355 1348 1343 1338 1334 1331 1328 1326
1526 1524 1522 1520 1520 1501 1476 1480 1481 1481 1474 1473 1473 1472 1470 1466 1461 1455 1457 1454 1449 1444 1438 1432 1426 1420 1414 1407 1400 1393 1386 1379 1373 1366 1360 1353 1347 1340 1334 1329 1325 1322 1320 1318
1521 1522 1521 1514 1510 1488 1476 1481 1482 1480 1470 1473 1471 1469 1467 1465 1461 1455 1451 1447 1443 1437 1432 1426 1420 1413 1407 1400 1393 1385 1378 1372 1365 1358 1352 1345 1339 1333 1327 1322 1318 1314 1312 1311
1506 1507 1510 1506 1505 1491 1476 1479 1477 1472 1471 1470 1468 1466 1463 1459 1455 1450 1446 1441 1436 1430 1425 1419 1413 1406 1400 1393 1385 1377 1371 1365 1358 1350 1344 1337 1331 1325 1320 1315 1310 1307 1305 1304
1503 1496 1491 1491 1482 1475 1476 1474 1472 1471 1469 1466 1464 1461 1458 1453 1449 1445 1440 1435 1430 1425 1419 1413 1406 1398 1392 1386 1379 1371 1363 1357 1349 1343 1336 1330 1324 1318 1313 1308 1304 1301 1299 1297
1495 1495 1492 1483 1472 1473 1472 1471 1470 1468 1466 1462 1460 1457 1453 1449 1444 1440 1435 1430 1424 1418 1412 1405 1398 1390 1383 1377 1371 1364 1357 1350 1342 1336 1329 1323 1317 1311 1306 1302 1298 1295 1292 1290
1491 1489 1484 1475 1470 1469 1466 1467 1466 1463 1461 1458 1455 1451 1448 1444 1439 1435 1430 1424 1418 1412 1405 1398 1390 1382 1375 1369 1363 1357 1350 1343 1336 1329 1323 1317 1311 1305 1300 1295 1292 1289 1286 1285
1483 1481 1476 1467 1466 1465 1462 1463 1461 1459 1456 1453 1450 1446 1443 1439 1435 1430 1424 1418 1411 1404 1397 1390 1383 1376 1368 1362 1355 1349 1343 1337 1330 1323 1317 1311 1305 1300 1294 1290 1286 1282 1281 1279